Location: Jackson Park
(37.2862°N, 79.9123°W)
Time: 14:28:37
(UTC+00:00)

Vanguard 3 - Pass Details

Date: 18 May 2026
Orbit: 507 x 3204 km, 33.3° (Epoch: 6 June)

Event Time Altitude Azimuth Distance (km) Brightness Sun altitude
Rises 21:03:13 0° 272° (W) 6,909 12.8 37.9°
Reaches altitude 10° 21:07:38 10° 271° (W) 6,031 12.9 37.1°
Maximum altitude 21:27:22 75° 191° (S) 3,086 10.7 33.1°
Drops below altitude 10° 21:42:43 10° 109° (ESE) 4,862 10.7 30.1°
Sets 21:45:51 0° 107° (ESE) 5,571 10.9 29.5°
